Regional Weather Roundup
Issued by NWS

Home | Current Version | Previous Version | Graphics & Text | Print | Product List | Glossary On
Versions: 1 2 3 4 5 6 7 8 9 10 11 12 13 14 15 16 17 18 19 20 21 22 23 24 25 26 27 28 29 30 31 32 33 34 35 36 37 38 39 40 41 42 43 44 45 46 47
000
ASUS45 KTFX 031410
RWRMT
MONTANA REGIONAL WEATHER ROUNDUP
NATIONAL WEATHER SERVICE GREAT FALLS MT
800 AM MDT MON AUG 03 2015

NOTE: "FAIR" INDICATES FEW OR NO CLOUDS BELOW 12000 FEET WITH NO
SIGNIFICANT WEATHER AND/OR OBSTRUCTIONS TO VISIBILITY.

MTZ001>007-043-031500-
WEST OF THE DIVIDE

CITY           SKY/WX    TMP DP  RH WIND       PRES   REMARKS
KALISPELL      SUNNY     58  40  51 CALM      29.89R SMOKE
MISSOULA       MOSUNNY   59  40  49 CALM      29.93S
BUTTE          MOSUNNY   56  42  59 CALM      30.07S
MULLAN PASS    MOSUNNY   72  23  16 SE3       30.06F
DEER LODGE       N/A     57  43  58 CALM      30.05S
EUREKA           N/A     57  37  47 CALM      29.90S
HAMILTON         N/A     61  43  51 S5        29.93F
LIBBY            N/A     59  36  41 CALM      29.89F
PLAINS           N/A     55  39  54 CALM      29.89S
RONAN            N/A     59  45  59 CALM      29.94S
$$

MTZ008-052>055-031500-
SOUTHWEST MONTANA

CITY           SKY/WX    TMP DP  RH WIND       PRES   REMARKS
BOZEMAN        SUNNY     62  46  55 CALM      30.02F
DILLON         MOSUNNY   54  41  61 SW7       30.05R
W YELLOWSTONE  MOSUNNY   50  39  66 CALM      30.17S
THREE FORKS      N/A     56  34  43 CALM      30.00F
TWIN BRIDGES     N/A     56  42  59 SW2       30.03S
$$

MTZ009-010-012-014-046-048-049-054-031500-
EAST SLOPES AND CENTRAL MONTANA

CITY           SKY/WX    TMP DP  RH WIND       PRES   REMARKS
CUT BANK       SUNNY     59  49  69 CALM      29.97S
GREAT FALLS    MOSUNNY   64  49  57 CALM      29.95S
MALMSTROM AFB  MOSUNNY   62  47  57 CALM      29.95S
HELENA         MOSUNNY   63  44  50 CALM      30.00S
CONRAD           N/A     54  53  96 CALM      29.99R
$$

MTZ011-013-016-021-045-047-050-051-031500-
NORTH CENTRAL MONTANA

CITY           SKY/WX    TMP DP  RH WIND       PRES   REMARKS
HAVRE          SUNNY     64  52  64 E14       29.93F
LEWISTOWN      MOSUNNY   66  48  52 SE9       30.02S
CHINOOK          N/A     63  52  67 E14G20    29.96F
FORT BENTON      N/A     68  50  52 E3        29.95S
$$

MTZ017>020-022>027-061-062-031500-
NORTHEAST MONTANA

CITY           SKY/WX    TMP DP  RH WIND       PRES   REMARKS
GLASGOW        SUNNY     65  48  54 E13       30.02F
JORDAN           N/A     63  47  55 E6        30.02S
SIDNEY         SUNNY     61  48  63 CALM      30.04F
WOLF POINT     SUNNY     63  50  62 E5        30.04F
MALTA            N/A     65  51  60 NE5       29.98S
POPLAR           N/A     64  52  63 CALM      30.05S
SCOBEY           N/A     57  51  80 CALM      30.05R
$$

MTZ028>42-056>058-031500-
SOUTHCENTRAL AND SOUTHEAST MONTANA

CITY           SKY/WX    TMP DP  RH WIND       PRES   REMARKS
BAKER          SUNNY     65  49  56 SE8       30.07R
BILLINGS       MOSUNNY   66  46  48 N3        30.02S
LIVINGSTON     SUNNY     59  44  57 NW6       30.06S
MILES CITY     SUNNY     65  48  54 NE9       30.01S
EKALAKA          N/A     67  47  48 SE9       30.03F
FORSYTH          N/A     64  48  55 E7        30.00S
LAUREL           N/A     65  48  53 CALM      30.00S
ROUNDUP          N/A     60  46  59 CALM      29.94S
$$

REGIONAL REPORTS...DAKOTAS

CITY           SKY/WX    TMP DP  RH WIND       PRES   REMARKS
WILLISTON      SUNNY     62  50  64 CALM      30.06R
MINOT          SUNNY     64  50  60 W6        30.02R
DICKINSON      SUNNY     63  51  65 CALM      30.05S
CROSBY         FAIR      63  54  72 CALM      30.05S
BISMARCK       SUNNY     62  53  72 SW7       30.04R
GRAND FORKS    SUNNY     63  53  70 NW8       29.93R
FARGO          SUNNY     64  53  67 N6        29.94R
BUFFALO SD       N/A     63  51  65 E7        30.00S
RAPID CITY     MOSUNNY   68  56  65 SE5       30.05S
$$

REGIONAL REPORTS...WYOMING/IDAHO/WASHINGTON

CITY           SKY/WX    TMP DP  RH WIND       PRES   REMARKS
GILLETTE       MOSUNNY   70  53  54 S15       30.06S
SHERIDAN       MOSUNNY   61  49  64 CALM      30.03S
BUFFALO WY     MOSUNNY   70  53  54 S9        30.09S
CODY           PTSUNNY   64  48  55 NW3       30.07S
YELLOWSTONE LA   N/A     57  45  64 CALM      30.25F
IDAHO FALLS    CLOUDY    67  46  47 CALM      30.02R
SALMON         MOSUNNY   55  46  71 CALM      29.95F
BOISE          CLOUDY    77  47  34 N6        29.89R
SPOKANE        PTSUNNY   69  31  24 SE5       29.82S
$$

REGIONAL REPORTS...ALBERTA

CITY           SKY/WX    TMP DP  RH WIND       PRES   REMARKS
EDMONTON       SUNNY     68  55  64 E3        29.88R
CALGARY        CLOUDY    61  52  72 S5        29.91S
LETHBRIDGE     PTSUNNY   63  54  72 S5        29.91S
MEDICINE HAT   CLOUDY    64  54  68 N6        29.90F
WATERTON GATE    N/A     54  50  87 CALM        N/A
MILK RIVER       N/A     66  50  55 S15G21      N/A
ONEFOUR          N/A     63  50  63 E16         N/A
$$

REGIONAL REPORTS...SASKATCHEWAN

CITY           SKY/WX    TMP DP  RH WIND       PRES   REMARKS
SWIFT CURRENT  SUNNY     64  55  72 S6        30.02S
REGINA         PTSUNNY   64  55  72 VRB2      30.03F
SASKATOON      PTSUNNY   63  55  77 CALM      30.02S
CYPRESS HILLS    N/A     59  46  63 SE10        N/A
VAL MARIE        N/A     64  54  68 E3          N/A
$$


USA.gov is the U.S. government's official web portal to all federal, state and local government web resources and services.